RH
28 28 28 25 27 30 33 29 22 18 13 7 4 3 3 3 4 4 4 3 3 3 2 2 2 3 4 4 5 5 5 5 7 7 6 6 6 7 7 6 6 6 6 6 6 6 6 7 8 6 9 11 10 10 8 8 8 12 25 31 31 29 24 22 17 15 16 16 15 16 17 18 22 26 27 25 33 43 44 42 37 33 35 41 47 51 55 59
30 29 25 20 21 25 31 28 20 15 9 5 3 3 3 4 5 4 3 3 3 3 2 3 3 5 5 5 6 6 5 5 7 7 5 6 7 7 7 6 6 6 6 6 6 7 7 8 8 8 14 14 11 11 9 9 9 13 27 29 23 24 23 19 16 16 16 16 17 18 17 20 23 24 21 22 32 36 41 56 58 49 46 43 44 47 49 51
34 29 24 22 19 23 30 22 15 11 5 4 3 3 4 4 4 3 2 2 2 3 3 4 4 5 6 6 6 6 6 6 7 6 6 7 7 7 6 7 6 6 7 6 7 7 7 8 7 8 14 13 10 10 9 9 10 13 19 19 14 19 22 17 16 16 17 17 18 18 17 19 20 20 21 22 28 30 32 45 50 48 45 40 37 36 36 39
35 29 26 25 22 24 25 16 10 7 3 4 4 4 5 4 3 2 2 2 2 2 3 5 5 6 7 7 6 6 6 5 6 6 6 6 6 6 6 6 7 7 7 7 7 7 7 7 7 9 12 12 9 10 10 9 11 13 13 14 13 15 17 16 17 16 17 17 17 17 16 19 22 23 26 25 27 30 30 32 37 40 40 40 40 40 39 38
35 31 30 27 22 20 19 12 6 4 4 4 4 5 5 4 2 2 2 2 2 3 4 6 7 7 9 9 8 9 8 6 6 6 6 6 6 7 7 7 7 7 7 7 7 7 7 7 8 9 10 10 9 10 11 10 13 15 13 13 15 15 16 16 16 16 16 16 16 16 15 19 23 24 26 27 28 30 33 35 36 37 38 41 45 46 45 45
36 36 33 27 19 18 16 9 4 3 5 5 5 5 4 3 2 2 2 3 3 4 6 6 7 7 8 9 8 8 8 6 6 7 6 6 7 7 7 7 7 7 7 7 8 7 7 8 9 9 8 9 9 11 11 13 17 17 13 12 15 14 15 16 14 15 16 15 15 15 17 20 21 24 26 28 31 34 36 37 34 34 35 36 39 43 47 53
38 36 30 23 17 17 13 5 4 5 5 6 6 5 4 3 2 2 2 3 4 5 7 7 7 7 7 6 6 7 6 6 7 7 6 6 7 7 7 8 7 8 8 8 7 7 8 7 8 8 9 9 9 10 10 12 14 14 12 11 14 14 15 16 15 16 16 16 17 15 18 19 19 24 28 29 32 33 33 32 30 31 30 29 33 40 49 56
38 33 25 19 17 15 8 4 5 6 6 6 6 4 3 2 2 2 3 3 5 6 7 7 7 7 6 5 6 7 6 6 7 6 7 7 7 7 8 8 8 8 8 8 7 7 8 7 7 8 9 8 9 10 10 12 14 12 12 13 15 15 17 15 16 19 17 19 19 16 16 15 20 26 29 32 33 30 27 27 28 27 26 26 30 37 47 57
38 30 22 18 17 12 5 4 6 6 7 6 5 4 2 2 2 3 4 4 5 7 7 7 7 6 6 6 5 7 6 6 6 7 7 7 7 7 8 8 8 8 8 8 8 8 8 7 7 7 8 8 10 10 11 14 14 11 13 16 15 16 18 16 19 20 18 22 18 16 18 16 22 29 30 34 31 25 22 23 24 21 20 19 20 25 38 52
32 24 19 17 14 7 4 6 6 5 6 6 5 3 2 3 3 5 5 5 6 7 8 7 6 6 6 6 6 7 7 6 7 7 7 7 7 8 8 9 8 8 8 8 8 8 8 8 7 8 8 8 9 9 11 13 11 11 14 18 16 17 21 21 24 21 17 20 16 16 20 19 28 32 32 33 27 19 19 21 18 14 15 16 15 21 38 52
21 19 17 16 10 4 5 5 4 4 4 4 3 3 3 4 6 7 6 6 7 8 8 8 7 6 6 7 7 6 7 7 7 7 7 7 7 8 9 8 9 8 8 8 8 8 8 8 7 9 9 9 10 9 12 12 10 13 13 16 21 23 26 26 26 22 17 18 15 14 20 26 33 33 30 29 22 16 18 19 16 14 16 19 21 25 38 48
15 19 15 11 7 4 6 3 3 4 3 3 3 3 4 6 8 8 8 7 7 8 7 7 6 6 7 7 6 6 7 7 7 7 7 8 8 9 9 9 9 9 9 8 8 8 8 8 9 10 9 10 10 11 14 12 11 14 13 19 25 25 26 27 27 25 22 19 14 11 21 32 30 26 27 26 23 19 21 22 21 21 21 26 32 29 30 34
16 17 11 7 5 5 5 2 3 3 3 4 3 4 5 7 9 8 9 8 7 7 7 7 6 6 7 7 5 6 7 7 7 7 7 8 9 9 9 9 9 9 9 9 9 9 9 9 10 10 10 10 10 13 14 12 13 14 16 24 26 23 25 28 30 28 23 17 13 10 17 27 22 22 27 28 28 25 26 29 28 29 29 33 35 32 30 29
15 13 7 5 5 5 4 3 4 4 4 5 4 5 6 8 9 9 9 7 7 6 6 6 5 6 6 6 6 7 7 7 7 7 8 8 8 9 9 10 10 10 9 9 9 10 9 10 10 10 10 11 11 12 13 14 14 13 21 29 28 25 25 27 29 27 20 13 13 12 18 29 26 25 29 32 34 32 32 34 34 36 36 35 31 31 33 35
14 10 5 5 6 4 3 5 7 7 6 5 5 6 8 9 8 9 8 7 7 6 6 7 6 6 6 6 7 8 8 8 8 8 9 9 9 10 10 10 10 10 10 9 10 10 10 10 10 11 11 12 11 12 18 21 17 14 23 31 28 25 23 25 27 23 20 14 13 16 25 36 34 29 32 35 36 36 36 37 40 41 40 36 30 28 30 38
11 6 4 6 6 3 4 8 10 9 8 6 6 7 9 9 8 8 8 7 7 7 7 7 6 6 6 7 8 8 8 8 9 9 9 9 9 10 10 10 10 10 10 9 10 10 10 10 10 11 11 13 12 14 25 25 18 16 20 24 25 25 24 27 25 21 24 20 15 20 32 38 34 31 33 36 39 40 40 41 44 44 41 37 31 27 26 34
7 4 6 7 6 4 5 8 10 11 10 9 9 9 9 9 9 8 7 7 7 7 7 7 7 7 6 8 8 8 8 8 9 9 9 9 10 10 10 10 10 10 10 10 11 11 11 11 11 12 11 13 12 14 24 26 22 22 20 21 24 24 26 28 22 20 28 27 21 26 35 35 32 33 33 35 39 41 43 45 46 46 43 41 36 27 25 41
5 5 8 7 6 4 5 6 8 10 10 10 10 10 10 9 9 8 7 7 7 7 7 7 9 9 8 8 8 8 8 9 9 9 10 10 10 10 10 11 10 10 10 11 12 11 12 12 11 13 12 14 15 15 21 25 25 27 27 27 24 22 25 27 22 23 31 30 27 33 36 35 34 34 33 36 39 41 45 47 47 46 44 45 39 27 34 57
5 7 7 7 5 4 5 5 6 8 9 10 10 9 9 9 7 7 7 7 6 6 6 6 8 8 8 8 8 8 9 9 10 10 10 10 11 11 10 11 10 11 11 11 12 11 12 12 11 13 14 15 17 18 21 23 24 27 31 31 25 23 25 24 21 23 30 29 28 35 38 37 37 35 35 38 40 43 47 47 47 46 48 49 42 43 59 71
6 6 5 5 4 5 7 8 8 9 10 10 10 9 9 8 8 7 7 7 6 5 6 6 7 7 8 8 8 9 10 10 10 10 10 10 11 11 10 11 11 11 12 11 12 13 13 13 13 16 16 17 18 19 21 21 24 27 31 29 25 25 25 21 20 22 29 31 31 37 39 37 37 36 37 39 41 45 47 47 47 48 49 43 38 49 65 70
5 4 4 4 4 6 8 10 10 11 11 10 9 9 8 8 9 8 7 6 5 5 5 6 7 8 9 9 9 10 10 11 11 11 10 10 11 11 11 11 12 11 11 12 13 14 14 14 16 18 17 17 18 19 20 21 26 29 31 28 23 26 22 17 19 22 29 35 36 37 36 35 36 36 36 39 42 46 46 46 49 49 44 37 37 47 56 64
4 4 4 4 5 7 9 10 11 11 11 10 9 9 8 8 9 9 8 6 6 5 5 6 7 8 9 9 10 10 11 11 11 11 11 11 11 11 11 11 12 12 13 14 14 15 15 16 19 18 18 19 19 20 20 21 26 31 33 28 22 24 23 18 18 20 27 36 39 39 35 33 35 35 35 38 41 45 47 47 49 44 39 47 54 53 57 68
4 4 4 5 7 8 9 10 11 11 10 10 9 9 9 9 9 9 8 6 6 6 5 7 7 8 8 9 10 10 11 11 11 11 11 12 11 11 12 11 12 13 14 15 16 16 17 18 20 18 19 20 19 20 21 21 25 31 31 26 22 21 24 26 21 22 31 37 40 38 33 33 35 35 34 37 41 43 45 46 46 40 44 65 64 50 55 64
4 5 6 6 7 8 9 10 10 11 10 10 9 9 9 9 9 9 8 7 7 7 7 7 8 8 8 9 10 11 11 11 12 12 12 12 12 12 12 12 13 13 14 15 15 17 19 20 20 20 21 21 21 21 22 22 25 29 28 25 24 21 23 26 24 30 36 38 38 34 31 32 33 34 34 35 40 42 43 45 43 42 55 70 60 47 52 49
5 6 7 7 7 8 9 10 10 11 10 10 10 10 9 10 10 10 8 8 7 8 8 8 9 9 9 10 10 11 11 11 12 12 12 13 13 13 13 14 14 14 15 17 17 18 19 20 20 21 22 21 23 23 23 24 23 27 27 23 24 24 23 25 30 41 44 37 34 33 35 35 31 33 34 33 38 42 43 44 47 56 64 59 48 46 48 40
6 8 7 7 8 8 9 10 10 11 10 11 10 10 11 10 11 10 10 11 11 8 8 9 9 8 10 10 9 11 13 12 12 12 13 14 13 14 14 14 15 15 16 19 21 19 19 21 22 22 23 23 24 25 25 26 25 27 26 22 25 26 26 29 35 46 47 37 32 33 38 39 32 31 31 31 37 41 44 48 57 65 60 47 44 48 45 40
6 7 7 7 7 7 9 9 10 11 10 11 11 11 11 10 11 12 13 17 17 11 7 8 8 8 9 10 10 11 12 12 13 13 14 15 14 15 15 15 16 17 17 19 22 20 20 22 22 23 24 24 25 26 26 27 28 29 25 23 27 28 29 32 37 44 42 36 33 31 33 36 32 30 30 31 36 41 46 53 57 53 44 41 44 45 40 32
6 7 6 7 7 7 8 8 9 10 10 11 10 10 10 8 10 11 13 20 19 10 8 9 8 9 10 10 10 11 12 12 13 14 15 15 15 15 15 15 17 18 18 20 21 20 20 21 23 24 25 25 26 26 27 29 30 29 27 26 27 29 31 34 38 40 36 37 38 30 31 39 36 31 32 33 37 46 50 50 48 42 43 48 47 41 31 17
5 6 7 7 7 7 7 7 8 9 9 10 9 9 8 7 10 12 15 19 15 8 10 10 8 10 10 10 11 11 12 13 14 15 16 16 16 16 17 16 17 19 19 20 21 21 21 22 24 25 26 27 27 26 28 30 31 30 30 28 27 29 31 34 39 37 35 41 40 31 33 42 41 32 30 34 38 44 45 43 41 44 49 51 48 39 21 5
5 5 7 7 7 7 7 7 7 7 8 8 8 8 8 9 12 18 20 17 11 8 10 9 8 9 10 10 12 11 13 14 14 16 16 16 17 17 18 17 18 20 21 21 22 22 23 23 25 26 27 28 27 27 29 30 31 32 32 31 30 31 31 32 34 33 38 42 35 31 35 43 48 37 26 31 36 37 40 40 40 47 53 53 49 33 12 1
5 6 7 7 7 7 7 7 7 7 8 8 9 8 10 10 11 17 20 14 10 10 10 9 8 9 9 10 12 12 13 14 15 16 16 17 17 17 17 18 19 22 25 25 23 24 26 26 25 26 27 28 28 28 29 31 32 33 34 34 34 34 32 33 32 34 45 47 34 31 38 45 50 39 27 32 36 37 41 39 41 52 57 56 45 22 6 2
5 6 7 7 7 7 7 7 7 8 10 10 11 10 11 12 13 15 15 11 11 11 9 9 8 8 9 11 12 12 13 14 15 16 16 16 17 17 18 20 22 25 27 27 26 26 28 28 28 28 28 29 30 29 31 33 32 33 35 35 39 42 41 44 42 43 51 47 35 35 43 48 44 34 32 37 38 40 41 40 48 58 58 52 35 12 4 3
5 6 7 7 7 6 6 7 8 9 11 10 11 12 11 15 18 16 11 9 11 10 7 9 9 8 10 11 11 12 13 14 15 16 16 17 18 19 21 23 24 26 28 29 29 29 31 32 30 29 29 30 31 30 31 34 33 35 35 37 44 49 56 62 56 54 55 46 38 39 43 46 40 33 37 39 40 42 41 45 52 54 51 43 24 6 4 3
6 6 7 6 6 6 5 6 7 9 9 8 11 12 11 14 15 12 9 8 10 9 7 9 9 9 10 11 12 12 13 14 15 16 17 17 18 20 22 23 26 27 29 30 30 30 35 37 33 30 31 32 32 31 32 34 34 37 37 39 42 45 55 64 57 58 61 53 47 43 39 40 38 38 41 41 42 42 43 48 50 47 44 34 15 3 5 3
6 6 6 5 5 6 5 6 6 7 8 8 9 11 12 14 13 10 8 8 8 9 8 8 8 9 11 11 12 13 13 14 15 16 17 18 20 21 22 24 26 28 29 31 32 31 33 35 32 30 32 33 32 31 33 35 35 37 38 39 42 43 46 52 51 51 55 58 54 45 39 39 39 43 43 42 42 41 46 50 46 44 37 21 7 3 5 3
6 5 5 6 7 7 7 7 7 7 8 8 9 10 12 14 11 8 8 8 9 9 8 8 9 9 10 11 12 13 14 14 15 16 17 19 21 22 23 24 26 29 31 31 33 34 33 32 31 32 34 35 33 32 33 36 36 38 40 41 43 44 45 51 54 48 50 65 60 44 42 43 45 49 44 42 44 43 49 51 45 43 32 13 4 3 5 3
5 5 5 7 8 8 8 8 8 8 8 8 8 9 10 10 9 8 8 8 8 8 8 9 10 10 11 12 13 13 14 15 15 17 18 20 22 23 23 24 26 29 32 33 34 36 36 33 31 33 37 36 34 34 34 36 38 38 41 43 42 45 48 51 57 57 63 74 61 44 47 50 52 54 43 41 47 47 50 50 43 39 26 10 5 3 4 3
5 5 6 7 9 9 9 8 8 8 8 8 8 9 9 9 8 9 8 8 8 8 8 8 10 10 11 13 13 13 14 15 16 18 20 21 22 23 24 25 26 29 32 34 35 36 38 36 33 36 39 39 36 36 36 37 40 41 42 43 42 48 53 49 56 69 77 78 65 52 53 53 51 49 43 43 47 47 50 47 40 34 22 9 5 3 4 3
6 6 7 7 8 9 9 8 8 8 8 8 8 8 8 8 9 9 9 9 8 7 8 8 9 11 12 13 14 14 15 15 17 18 20 22 22 23 25 25 27 29 32 35 36 37 39 39 38 38 41 41 37 37 37 36 40 42 44 46 45 47 50 48 52 62 71 81 79 69 63 56 46 45 46 47 47 49 51 43 37 32 19 8 5 3 4 4
8 8 8 8 8 8 8 8 8 7 7 8 8 9 8 9 9 9 9 9 8 8 8 8 10 11 12 13 14 15 15 16 17 18 20 22 22 24 26 25 27 29 31 35 37 38 39 40 41 40 42 43 40 38 37 36 39 42 45 48 48 45 47 51 55 55 62 77 83 82 77 57 43 48 51 48 49 53 51 44 38 30 18 9 6 3 3 4
9 8 8 8 7 7 7 7 7 7 7 8 8 9 9 9 9 9 9 9 8 8 8 9 10 12 13 14 14 15 16 16 17 19 20 22 23 25 26 26 27 29 32 35 37 39 40 41 42 42 43 43 41 40 39 38 40 42 46 48 47 47 50 57 63 58 58 67 70 80 85 59 41 50 52 49 55 55 50 45 37 27 18 10 6 4 4 4
7 7 7 6 6 7 7 7 7 7 7 8 8 9 9 9 10 10 9 9 8 8 9 9 11 12 13 14 15 16 17 17 17 19 20 22 24 25 26 28 28 29 32 35 37 40 41 42 43 43 45 46 44 42 40 40 40 43 47 48 48 50 51 56 63 58 56 63 61 70 82 62 43 50 52 52 58 55 50 45 35 26 19 12 7 4 3 4
7 6 6 6 6 6 7 7 8 8 8 8 9 9 10 10 10 10 10 9 8 8 9 10 11 12 13 14 15 16 17 17 18 19 21 23 25 26 27 28 28 29 32 35 37 40 42 45 45 44 46 46 44 42 40 40 42 45 50 50 49 52 52 54 58 55 57 63 60 74 87 64 43 50 54 56 59 56 52 46 34 27 21 14 9 5 4 4
6 6 6 6 7 7 7 8 8 9 9 9 9 10 10 11 11 11 10 9 9 9 9 10 11 13 14 15 16 17 17 18 19 20 22 24 25 26 28 29 29 30 32 35 38 40 42 45 45 47 52 53 49 47 46 45 47 51 52 51 50 50 52 55 56 59 65 62 62 82 87 59 44 53 56 57 60 57 54 46 35 29 24 16 10 5 4 4
5 5 6 6 7 7 8 9 9 9 10 10 10 11 11 12 12 11 11 10 9 9 9 11 12 13 15 16 17 18 19 19 20 21 23 24 26 27 28 29 30 30 31 35 39 40 42 44 45 48 56 61 60 56 52 51 51 53 52 51 51 50 51 54 56 63 68 61 60 74 72 54 49 54 55 60 63 58 53 45 35 31 26 18 12 7 4 4
5 6 7 6 7 7 8 9 9 10 10 11 11 11 11 12 12 12 12 10 10 10 10 11 13 14 16 16 17 18 19 20 21 22 23 25 26 27 28 29 31 31 32 35 38 40 42 43 44 47 50 53 54 52 50 51 52 52 52 52 52 52 52 53 56 60 60 57 59 61 58 55 54 53 57 63 65 61 53 44 37 34 28 20 14 9 5 4
5 6 6 6 7 7 8 9 9 10 10 11 11 12 12 13 13 12 12 11 10 10 10 11 13 15 16 17 17 18 19 20 22 23 24 26 27 28 28 29 31 32 32 34 37 40 42 42 43 46 48 48 49 48 49 52 53 54 55 54 54 55 52 50 53 55 53 58 61 56 55 59 56 54 61 65 66 64 54 44 40 35 29 23 16 10 7 5
5 6 6 6 7 7 8 9 10 10 11 11 12 12 13 13 13 13 12 12 11 11 11 12 13 15 16 17 18 18 19 21 22 23 25 26 27 28 28 29 31 32 33 35 37 39 42 42 42 45 47 46 46 48 50 53 55 55 54 54 54 55 52 48 51 52 52 57 60 57 59 61 56 57 63 64 66 65 55 48 43 37 31 26 18 13 8 6
5 6 6 6 7 7 8 9 10 11 11 12 12 13 14 14 14 14 13 12 11 11 11 12 13 14 16 17 18 19 20 21 22 24 25 26 27 28 28 29 30 32 34 35 36 39 41 41 42 45 45 42 43 48 50 53 56 53 50 50 50 49 48 48 51 54 54 57 58 59 61 59 57 61 64 62 64 64 59 53 45 39 35 28 21 16 10 7
5 5 6 6 7 7 8 9 10 11 11 12 13 13 14 14 14 15 14 13 12 12 12 13 13 15 16 18 19 19 20 21 22 24 25 26 27 28 28 29 30 32 34 35 36 39 40 40 42 45 44 39 41 48 51 54 57 53 48 47 49 50 49 50 53 56 58 59 60 62 62 59 59 63 64 62 62 63 63 58 49 43 38 31 25 19 13 9
5 5 5 6 6 7 9 9 10 11 11 12 13 14 15 15 15 15 14 13 13 13 13 14 14 15 17 18 19 20 20 21 22 23 24 25 26 27 28 29 30 32 33 35 37 37 39 41 41 46 47 40 40 49 51 52 54 51 46 46 51 54 53 52 55 58 60 63 64 63 60 59 62 66 64 63 63 64 64 61 55 47 41 35 29 22 16 11
5 5 6 6 7 8 9 10 11 11 11 12 14 14 15 16 16 16 15 14 13 13 13 14 15 16 17 18 19 20 21 21 22 23 23 24 26 27 28 29 30 31 32 34 36 36 39 40 40 47 52 42 40 49 50 50 53 48 44 47 51 53 54 54 57 61 63 65 65 61 58 61 66 67 65 64 63 64 65 64 60 53 45 40 34 26 19 13
Wind_Speed
13 14 13 10 8 7 5 2 3 4 5 7 9 10 10 9 9 10 11 12 12 13 12 13 13 13 12 11 11 11 12 17 19 14 11 13 16 17 17 18 17 17 16 15 15 16 19 18 17 16 17 19 17 17 16 15 16 15 15 6 4 10 14 15 19 20 20 23 25 27 29 29 27 27 28 28 25 26 31 33 33 34 33 33 33 32 32 33
13 15 13 10 9 8 6 2 2 3 5 7 9 9 8 8 9 10 11 12 12 12 11 11 12 12 12 12 13 14 13 18 18 11 12 16 17 17 17 17 16 16 15 14 16 17 18 16 16 17 14 12 15 17 16 17 16 14 12 5 6 9 13 17 18 19 20 22 26 29 30 28 26 29 30 26 21 25 29 28 30 31 30 33 35 36 37 37
14 13 12 10 9 8 6 1 2 3 5 7 8 8 8 8 9 10 12 12 12 12 11 11 10 10 11 12 14 14 14 17 15 12 16 18 17 17 17 16 15 15 14 14 16 16 17 15 16 18 15 13 16 16 15 16 15 13 10 8 9 5 12 17 16 18 19 22 27 28 28 27 29 32 30 26 23 28 29 28 31 32 30 31 33 36 38 40
14 11 11 10 8 7 4 1 2 3 4 6 7 7 8 9 10 11 12 12 12 12 11 11 11 9 9 11 14 14 14 16 15 15 18 17 16 16 16 15 15 15 14 15 16 15 15 16 17 18 16 15 18 17 16 17 16 15 15 14 12 7 12 16 17 18 19 25 28 26 28 26 28 32 29 28 28 30 30 28 29 32 34 35 35 36 37 39
12 10 11 9 5 3 1 2 2 3 5 7 7 8 8 9 11 11 11 11 11 11 11 12 11 9 8 8 11 9 8 13 15 16 16 16 16 16 16 16 16 15 15 16 16 16 17 18 17 16 15 15 18 16 15 16 16 16 18 18 14 13 17 19 19 19 25 32 28 29 32 25 25 29 28 27 27 28 27 25 29 34 37 37 37 37 37 37
11 10 10 7 3 2 1 2 3 5 6 7 8 8 8 10 11 11 11 11 11 11 11 11 11 10 10 10 11 9 6 11 14 14 15 15 16 16 16 17 17 16 17 17 15 15 17 17 14 15 16 17 19 17 15 14 13 13 18 19 16 20 23 21 20 20 30 35 30 35 33 25 27 26 25 24 23 24 23 26 33 36 37 37 38 38 38 37
11 11 10 6 2 0 1 2 4 5 7 8 8 8 9 10 10 10 11 11 11 11 10 11 9 10 12 13 15 13 11 14 14 13 13 15 16 16 17 17 17 16 16 14 14 15 16 15 14 15 16 17 20 19 16 15 16 16 19 19 18 25 24 18 19 23 32 31 30 38 32 28 29 24 24 22 21 23 25 30 34 34 36 37 39 40 39 38
11 13 11 4 1 1 1 3 5 6 8 8 8 8 9 9 9 10 10 10 10 10 10 10 9 10 11 12 15 13 12 15 14 12 13 15 16 16 17 17 16 15 15 13 16 17 15 15 15 16 17 19 20 17 15 16 18 19 18 17 19 26 22 18 19 25 32 28 30 37 33 34 29 23 23 20 23 27 30 32 31 32 34 35 38 40 40 38
13 14 9 5 3 1 2 4 5 6 7 8 8 8 8 8 8 9 9 9 9 9 9 9 9 11 11 11 15 14 12 14 13 12 13 15 15 17 18 17 16 16 15 15 17 16 16 16 15 16 17 20 18 14 15 14 17 20 18 16 20 25 22 21 22 28 30 26 32 34 32 35 27 23 22 21 27 31 32 32 33 36 34 34 38 40 40 40
14 13 8 6 2 2 4 5 5 6 7 8 8 8 8 8 9 9 9 9 8 8 7 8 9 9 10 12 14 14 13 13 12 12 14 15 15 16 16 16 16 16 15 16 16 16 17 16 15 17 18 19 16 13 14 14 20 23 21 18 22 25 20 18 22 31 32 27 34 33 29 31 23 21 22 25 32 34 35 35 36 40 35 35 41 41 38 38
11 10 7 3 1 3 5 4 5 6 8 8 8 9 9 9 9 8 9 9 8 8 7 7 7 8 12 12 9 13 13 12 12 14 15 15 14 14 14 16 16 15 16 17 17 17 17 16 18 19 17 17 15 13 13 17 23 25 24 19 20 22 15 15 21 29 33 31 35 32 26 24 18 21 25 28 34 37 37 34 35 39 35 35 41 41 37 35
8 7 3 2 3 4 5 5 6 7 9 9 8 9 10 10 9 8 8 8 8 7 7 7 7 10 14 10 6 11 12 11 13 15 15 14 13 13 14 16 16 16 17 18 18 18 18 18 20 17 15 16 15 13 12 19 24 25 24 15 15 15 9 17 22 24 32 32 35 33 22 18 20 25 28 30 35 38 35 31 33 37 36 36 38 41 39 39
5 4 2 3 4 5 5 6 7 8 8 8 8 9 10 10 9 10 9 9 9 8 9 9 10 13 12 7 7 11 10 11 14 14 14 14 13 12 14 16 17 17 17 17 18 18 18 19 18 15 14 17 18 14 12 20 24 24 21 13 15 13 6 16 17 21 31 31 35 35 21 18 26 29 29 31 34 37 33 29 32 35 35 36 39 43 43 43
4 2 2 4 5 6 6 6 7 7 7 7 9 9 10 10 10 11 10 10 11 10 12 11 11 13 8 6 11 12 11 13 14 13 13 13 14 14 15 17 17 17 16 16 17 18 18 18 16 14 16 19 19 16 14 19 23 25 19 11 16 17 14 14 12 23 32 31 34 31 20 18 27 29 29 31 32 34 30 27 31 32 32 36 43 47 47 46
2 2 4 6 7 7 7 7 7 7 8 8 10 10 9 9 9 10 10 11 12 12 14 13 12 11 7 8 13 12 13 14 13 13 13 15 16 16 17 18 18 17 16 16 16 17 15 15 16 17 19 19 20 20 12 14 22 25 19 12 18 23 23 16 15 27 31 31 32 25 18 16 23 28 29 30 31 32 31 27 28 29 30 37 44 50 50 47
2 4 6 8 8 8 8 9 9 10 10 11 11 10 10 10 10 10 10 11 13 13 14 14 13 11 8 10 12 10 10 12 12 13 14 15 16 16 17 18 19 17 15 15 15 16 15 16 18 18 19 18 23 21 7 8 22 25 23 22 24 26 26 20 21 26 26 30 29 20 15 15 22 28 28 30 31 32 31 27 28 29 31 38 45 50 51 47
4 7 8 9 9 9 10 10 11 12 12 12 11 10 10 11 11 11 12 13 14 14 14 14 12 10 10 12 11 9 11 13 13 14 14 15 15 17 19 18 19 17 14 14 15 18 18 17 18 17 20 21 26 26 12 11 23 24 25 27 27 28 26 23 27 25 22 26 25 17 13 17 23 26 28 30 30 32 31 29 29 30 33 38 44 51 49 42
6 9 10 10 9 9 9 9 9 10 10 10 11 11 11 11 12 12 12 13 13 12 13 12 9 8 11 12 10 12 14 14 14 14 15 15 16 17 18 17 18 16 13 14 14 17 17 15 15 17 24 27 30 34 26 18 20 21 23 24 30 32 27 25 27 24 20 24 21 15 13 19 24 26 30 31 30 32 31 29 29 31 34 37 44 51 44 33
8 10 10 10 10 10 8 8 8 8 8 9 11 11 12 11 11 11 10 10 11 11 12 11 8 9 12 11 11 14 14 14 14 14 14 16 16 16 16 16 17 16 14 15 14 16 16 14 16 24 30 31 33 34 30 22 19 20 18 21 30 32 27 25 24 21 21 23 19 14 15 19 25 29 31 31 30 30 29 28 30 32 33 36 44 45 34 29
9 11 11 11 11 10 9 9 10 10 10 11 11 11 13 13 11 9 9 10 11 12 12 10 9 12 13 12 13 13 12 13 14 13 14 16 16 15 17 18 18 16 14 14 16 16 17 17 23 29 30 29 31 30 29 25 20 19 17 22 30 29 27 23 20 20 18 20 18 14 16 21 27 30 30 30 28 27 27 27 29 31 32 39 45 40 31 33
10 12 13 12 11 10 10 11 11 11 11 12 12 11 13 14 12 9 8 10 12 11 9 8 9 11 13 13 13 12 12 14 14 13 14 15 15 15 17 18 17 16 13 14 18 18 17 22 27 27 26 27 29 29 30 26 20 18 18 25 31 27 26 23 21 20 15 17 18 12 16 23 27 27 27 28 26 25 25 26 29 30 36 43 45 38 35 35
12 13 13 12 10 10 11 11 11 10 10 11 11 12 12 13 13 10 7 9 11 9 8 8 8 9 10 10 11 12 11 11 12 13 14 15 15 15 16 16 16 16 14 13 19 19 19 25 26 24 25 27 27 27 29 27 20 16 17 28 33 26 24 22 22 20 13 15 15 12 18 24 25 24 25 25 25 24 23 27 29 34 41 40 37 39 38 35
12 13 13 12 10 10 10 10 9 9 10 11 12 13 13 12 12 10 8 9 10 9 8 8 7 8 8 7 8 10 10 9 11 14 15 15 16 16 16 16 16 17 14 12 17 21 22 24 23 24 25 26 26 27 29 28 23 17 20 30 32 25 22 21 23 21 13 11 12 14 21 23 21 20 23 23 22 22 25 29 31 37 39 29 32 43 40 36
13 13 13 11 10 9 9 8 8 9 10 11 13 14 13 12 11 10 9 9 9 9 9 8 8 7 7 7 6 7 10 12 13 14 15 16 16 16 16 17 17 18 17 14 16 21 23 22 22 24 24 25 26 27 29 30 26 20 23 30 28 23 19 18 21 21 16 10 9 17 19 16 18 21 23 23 21 24 28 29 33 37 30 24 38 46 39 40
13 13 12 11 9 8 8 8 8 9 10 11 12 13 11 10 8 7 7 7 8 8 6 5 6 7 7 7 6 6 8 12 13 14 16 16 16 16 16 17 18 19 19 16 15 18 21 22 22 23 24 25 26 27 29 30 28 22 24 28 23 17 16 14 16 19 18 11 10 17 12 9 20 24 24 25 25 27 29 31 32 28 22 30 47 48 43 46
14 14 12 10 8 7 7 7 8 10 11 11 11 10 8 6 5 5 5 4 5 7 5 3 4 6 7 7 8 7 6 10 14 14 15 16 16 16 17 17 18 19 19 17 15 14 18 21 23 23 24 25 25 26 27 29 28 25 27 28 19 14 16 14 15 17 15 13 12 11 10 14 23 23 24 28 27 27 30 29 24 21 29 44 51 47 46 46
15 13 11 9 7 5 6 6 8 10 10 9 9 7 4 3 3 3 3 2 0 4 4 3 3 4 5 7 9 9 7 10 13 14 15 16 15 16 17 17 16 17 20 18 14 13 15 19 21 23 24 25 25 24 27 28 26 27 32 31 20 17 16 11 14 13 12 16 11 6 15 20 20 22 26 26 24 26 26 24 25 33 45 51 50 47 45 47
15 13 10 7 6 5 5 5 8 10 9 8 7 5 2 2 1 1 0 1 3 4 3 3 3 2 5 7 8 10 9 10 12 12 14 14 15 16 17 18 15 15 20 19 15 14 14 16 20 23 24 26 25 24 26 26 26 30 35 33 21 15 12 8 11 10 11 15 9 10 21 16 15 23 23 19 21 21 20 26 36 44 48 50 48 47 48 52
15 13 10 6 5 4 4 5 7 9 8 8 8 6 5 5 3 2 1 2 3 2 2 2 2 2 5 7 8 9 9 10 11 11 13 14 16 16 16 18 15 13 18 20 18 15 13 14 19 23 24 26 24 24 26 25 27 32 35 34 22 14 12 7 8 9 12 11 6 15 23 12 13 18 14 16 23 24 27 36 43 45 47 48 46 47 54 55
14 13 10 5 4 3 3 5 6 7 8 9 8 7 6 4 2 1 1 2 3 3 4 2 2 2 4 6 8 9 9 10 10 11 12 14 15 15 15 18 17 14 16 20 20 18 14 12 18 23 23 24 23 23 24 24 28 33 34 33 23 15 13 4 6 9 9 6 4 15 24 15 8 8 14 25 29 31 37 42 45 46 47 45 45 52 57 54
14 13 9 5 3 4 4 5 5 6 7 7 6 5 4 4 3 1 1 3 4 4 4 3 2 2 4 5 7 8 9 9 9 10 12 13 14 15 16 19 20 15 13 18 21 20 16 11 15 21 22 24 23 23 24 23 27 31 32 32 23 14 8 1 3 6 3 3 7 18 27 17 7 12 26 32 33 36 39 43 45 46 45 45 49 56 57 53
14 12 8 5 4 5 4 5 5 5 4 4 4 5 4 3 3 3 3 3 3 5 4 2 3 3 4 5 7 8 9 10 10 11 13 14 15 17 19 21 22 16 9 16 21 20 17 10 13 19 23 26 24 23 23 22 25 30 33 33 20 9 6 2 3 4 3 5 14 26 26 13 11 20 28 32 37 39 38 43 45 43 44 47 53 58 56 51
13 10 7 6 5 5 4 4 5 4 3 2 3 4 4 2 3 4 5 5 3 3 5 4 3 3 4 5 7 8 9 11 12 12 14 15 15 18 19 20 22 19 13 16 19 19 16 10 12 18 22 26 24 22 22 20 22 28 32 31 16 5 6 5 4 5 4 10 24 31 19 12 16 23 28 35 37 35 38 43 42 41 44 48 55 58 54 50
10 8 6 6 5 4 4 5 6 5 4 3 2 4 4 3 4 5 6 8 5 3 4 5 3 3 4 6 7 9 10 10 13 13 13 15 15 16 18 17 20 21 19 18 17 18 14 7 12 17 19 25 23 19 21 20 20 22 25 23 13 5 3 1 4 5 9 19 29 24 10 11 20 26 32 33 29 33 42 42 38 41 44 50 56 55 52 51
8 7 7 5 4 3 4 5 6 6 5 4 4 4 5 4 5 6 6 8 7 4 4 4 4 4 5 6 7 9 9 10 13 12 12 14 14 15 17 17 18 20 21 17 15 19 15 8 12 15 18 24 21 17 19 18 16 17 20 20 14 5 1 6 10 13 18 21 19 13 10 16 24 28 28 26 30 38 40 36 38 43 47 53 55 52 52 50
8 8 6 5 4 3 4 4 5 5 5 5 5 6 6 5 6 7 6 7 7 6 5 4 4 5 6 6 6 9 9 10 12 12 13 14 13 13 16 16 17 19 21 19 16 19 17 11 11 14 19 24 19 16 18 17 16 16 16 18 15 7 4 8 12 16 16 11 8 12 18 24 27 22 19 25 36 38 32 35 42 45 50 55 54 52 51 49
8 7 6 5 4 4 3 3 4 5 5 5 6 7 7 7 7 6 5 6 6 6 6 6 5 5 5 5 6 8 9 9 11 13 13 13 12 13 15 15 16 18 20 20 18 19 19 14 11 14 21 24 19 15 16 17 19 18 14 16 15 8 6 8 8 9 7 4 7 12 19 28 25 15 22 35 37 33 32 40 46 49 53 54 53 51 50 49
7 6 6 5 5 4 3 3 4 4 5 5 6 7 7 7 8 7 6 6 6 7 7 8 7 6 5 5 6 7 8 8 10 12 11 11 13 13 14 14 15 17 19 19 19 20 19 14 12 16 22 23 19 15 16 18 20 20 17 18 16 6 5 10 7 5 4 4 7 9 15 25 20 16 31 39 33 32 38 45 50 52 54 54 53 51 50 49
6 5 5 5 5 5 5 5 5 5 6 7 6 6 7 7 7 7 8 7 7 7 7 7 7 6 6 6 6 6 8 8 8 10 10 10 13 13 13 14 15 16 18 18 19 21 18 11 10 19 24 22 18 13 13 17 20 22 22 19 15 8 6 11 5 4 4 3 6 8 12 19 19 21 32 34 30 36 44 49 53 52 52 53 52 51 50 49
5 5 4 5 5 6 6 6 7 7 7 7 6 7 7 7 7 7 8 8 7 7 7 7 7 6 5 6 6 6 8 7 8 10 9 10 12 12 12 14 14 16 18 18 19 21 19 9 10 21 24 18 17 14 14 17 18 21 22 17 14 12 10 11 6 7 5 2 3 6 9 22 26 22 26 31 32 39 46 50 51 50 52 52 50 51 50 48
5 4 4 5 5 6 6 7 7 8 8 8 7 8 8 7 7 7 7 8 8 8 7 8 8 7 6 5 6 6 7 7 8 9 10 11 12 12 13 14 15 15 17 19 18 21 19 8 12 24 23 17 18 17 18 19 17 21 23 17 16 15 10 7 4 7 7 6 7 5 10 27 29 20 27 36 35 40 47 48 49 50 51 50 50 50 49 48
4 4 4 5 5 6 6 7 7 8 9 8 8 8 8 8 7 7 8 8 9 9 8 8 9 8 7 6 6 7 7 8 7 8 11 12 11 13 13 14 15 15 17 19 19 23 19 10 15 25 21 17 18 16 18 19 18 21 23 20 18 15 11 7 4 9 13 14 16 10 12 24 27 25 33 38 36 42 46 46 47 49 50 50 50 49 48 48
4 4 4 5 5 6 6 7 7 8 9 9 9 9 8 8 8 8 9 9 9 10 9 9 9 8 7 7 6 7 7 7 7 9 12 11 12 13 13 15 16 15 17 19 20 23 18 11 18 25 21 17 17 15 15 16 17 21 24 23 21 17 17 15 13 16 17 17 17 8 10 21 30 33 37 37 37 43 44 45 47 48 49 49 48 49 49 48
5 5 5 5 5 6 6 7 7 7 9 9 8 8 8 8 8 8 9 9 10 10 10 10 10 9 8 7 6 7 7 6 7 9 11 12 13 13 14 16 16 15 16 18 20 22 18 15 20 21 16 14 12 11 13 15 19 23 26 26 24 22 22 21 20 17 12 15 13 5 10 29 39 39 39 37 39 43 42 44 46 46 48 49 48 48 48 47
5 5 5 5 6 6 7 7 7 8 8 8 8 8 8 8 9 9 9 10 11 11 11 10 10 10 8 7 7 7 7 7 8 9 11 13 12 13 14 15 16 16 16 17 20 21 19 20 20 14 8 8 9 12 17 23 26 26 27 27 27 26 26 24 20 13 11 16 15 14 23 44 47 41 39 39 39 42 43 44 45 45 46 47 48 48 47 46
4 4 5 5 6 6 6 7 8 8 8 8 9 9 9 9 9 9 10 11 12 12 12 11 11 11 9 8 7 7 8 9 9 9 12 13 12 13 15 15 17 16 15 16 19 20 21 22 21 16 14 16 21 24 23 23 27 28 27 27 28 28 27 26 21 18 19 21 24 29 36 46 48 43 39 39 39 41 43 44 44 44 45 46 47 47 46 46
4 4 5 5 6 6 6 7 8 9 9 9 10 10 9 9 10 10 11 11 12 12 12 12 12 11 10 9 9 8 8 9 9 10 12 13 13 14 15 16 16 15 15 17 18 20 22 23 22 22 25 27 29 28 22 20 26 30 27 25 27 26 26 27 24 25 24 20 28 37 37 39 47 45 38 39 39 40 44 44 44 45 44 45 46 46 46 45
5 6 6 6 6 6 7 8 9 9 9 9 10 10 9 9 10 10 10 11 12 12 12 12 12 12 11 10 9 9 9 10 10 11 12 14 14 14 16 17 15 15 17 17 18 20 22 24 24 26 31 32 27 23 22 25 29 31 27 23 24 26 27 27 28 29 26 24 33 43 42 42 46 42 37 39 40 41 44 44 44 45 44 44 45 45 45 45
6 6 6 7 7 7 8 9 9 9 9 9 9 10 9 10 10 10 11 12 12 13 13 13 13 13 12 11 10 10 10 10 11 12 13 15 15 15 17 16 15 17 18 17 18 20 21 24 26 28 35 34 25 23 28 31 33 32 26 20 19 23 27 29 30 29 28 33 40 43 44 45 41 36 38 42 40 42 44 44 44 44 43 44 44 44 45 45
6 6 6 7 7 8 8 9 10 10 10 10 10 10 10 10 10 11 12 12 13 13 13 13 13 13 12 12 11 11 10 11 12 13 14 15 16 16 17 16 16 17 18 17 18 19 21 25 25 29 36 34 27 27 32 31 32 30 21 15 16 21 25 27 29 30 30 37 40 39 43 45 39 35 40 43 42 44 44 43 44 44 43 44 44 44 45 44
6 6 7 7 8 8 9 10 11 11 10 10 10 10 10 10 10 11 12 13 13 14 13 13 13 13 13 12 11 11 11 12 13 14 15 16 17 17 17 18 18 18 18 17 18 20 21 24 27 28 32 34 31 31 34 32 28 22 17 19 21 21 24 27 29 31 33 37 39 38 41 42 40 37 41 42 42 44 44 44 45 44 43 43 43 44 44 43
6 7 8 9 9 9 10 10 11 11 11 10 9 10 10 10 10 11 12 13 14 14 14 14 13 13 13 12 12 11 12 13 14 15 16 16 18 17 17 18 17 17 19 17 17 21 20 23 28 25 26 34 34 32 36 32 19 15 20 24 23 21 24 29 33 36 37 36 36 37 39 40 41 40 43 44 44 45 45 44 43 44 44 43 43 43 43 43
Wind_Direction
141 143 140 129 128 129 130 105 51 45 42 50 56 59 66 74 85 92 93 94 94 93 89 86 81 76 78 82 84 81 84 82 63 50 62 68 63 57 52 50 50 47 44 41 37 38 38 39 33 28 37 28 19 21 21 27 24 43 59 40 5 346 328 321 324 332 331 325 331 336 334 333 329 316 318 327 324 313 308 307 305 303 304 304 303 301 297 295
143 141 133 124 121 112 124 147 24 21 31 51 59 64 76 86 96 97 96 95 95 94 89 85 79 73 73 78 80 74 75 77 66 57 68 65 57 54 51 49 48 47 44 39 38 39 39 41 34 38 46 24 18 23 20 23 21 45 61 5 2 356 316 318 328 333 332 334 342 341 337 335 323 312 318 327 317 309 312 311 308 307 308 306 306 306 305 305
143 136 126 121 110 105 126 139 13 24 38 59 66 75 89 96 100 99 97 94 92 90 83 79 79 79 73 75 78 73 73 75 73 70 68 62 56 54 51 47 47 46 43 40 40 39 41 40 34 41 44 20 20 27 21 20 21 32 38 9 15 3 306 320 332 336 338 342 343 339 340 335 318 316 326 329 315 310 313 312 313 318 320 316 313 312 311 310
144 136 128 125 110 114 133 15 23 41 57 75 80 92 99 103 104 100 97 93 91 86 80 77 77 88 86 79 79 77 75 76 76 71 65 60 56 53 48 47 47 44 41 40 38 38 39 37 35 38 37 23 18 21 17 15 17 21 23 16 12 349 325 333 337 340 342 343 340 339 345 338 322 324 328 324 316 313 315 315 319 325 327 325 321 318 315 312
147 144 140 135 124 133 108 16 44 61 76 87 93 105 108 110 107 100 95 91 88 81 80 78 74 86 94 84 81 77 71 71 69 65 63 58 54 50 46 45 43 41 39 37 33 32 33 33 33 34 35 29 20 17 17 14 13 16 16 11 8 358 349 343 340 344 345 343 342 344 348 342 327 325 323 321 318 316 318 320 323 327 328 328 325 322 319 314
149 151 149 147 149 141 26 25 63 76 87 93 103 111 113 116 108 99 92 86 85 82 83 82 77 81 90 91 82 71 72 77 67 63 63 57 54 47 44 42 39 35 34 34 31 33 34 34 36 32 29 23 19 16 13 16 17 17 9 8 11 2 356 346 343 351 345 340 345 350 347 341 333 325 324 326 322 320 320 321 324 327 330 331 328 325 321 317
148 155 154 154 153 37 358 45 74 86 94 102 111 114 116 117 109 100 92 84 85 87 88 86 85 86 90 94 87 75 75 80 69 62 60 55 52 45 43 41 36 35 34 31 29 34 32 31 36 32 28 18 16 15 5 10 19 13 4 8 9 0 355 347 346 349 344 340 350 352 343 339 341 333 332 331 327 325 320 320 322 324 328 330 329 327 324 320
145 151 156 168 225 288 13 69 84 94 102 111 115 114 116 114 108 101 93 89 91 95 94 91 96 99 96 93 90 79 69 73 66 60 58 54 50 43 42 37 33 35 31 27 28 30 26 25 30 26 26 17 13 14 9 13 16 7 7 16 7 359 352 346 348 343 345 347 351 351 341 341 346 338 333 329 329 327 323 323 324 327 330 332 331 329 327 323
146 151 170 210 229 242 70 81 94 103 109 115 116 116 115 109 101 94 90 93 100 103 100 99 100 99 94 87 85 78 68 68 62 59 57 52 47 41 38 31 30 30 26 28 27 27 24 22 24 21 20 15 10 16 24 24 14 9 19 20 3 359 349 344 344 340 350 350 348 353 342 340 343 335 331 327 330 328 327 330 332 335 336 339 338 332 328 326
155 164 190 207 199 80 83 92 103 110 116 118 120 120 114 103 91 86 90 100 110 107 102 104 104 103 94 79 75 73 67 64 58 56 52 46 40 36 32 27 28 27 26 28 25 24 22 17 20 21 15 10 3 10 26 16 9 15 20 13 3 359 344 341 337 337 352 350 350 358 339 335 338 331 329 326 329 329 331 334 335 336 335 341 343 336 331 329
165 175 184 173 95 78 95 100 108 117 121 121 123 121 111 98 89 87 96 108 114 108 106 106 113 116 92 76 70 70 65 58 55 51 47 43 35 32 27 23 25 25 26 26 22 21 18 15 20 20 12 7 2 8 14 3 9 16 12 9 4 353 329 329 331 333 349 351 354 358 337 329 328 323 325 325 329 331 330 330 332 333 332 338 342 340 336 332
170 167 153 93 73 91 103 106 117 121 122 124 125 119 108 100 96 96 101 107 112 113 112 110 116 101 85 88 88 72 66 57 53 49 44 38 31 29 22 21 23 23 25 23 21 19 16 19 17 12 7 8 11 16 7 3 12 10 7 14 4 355 319 321 330 334 346 351 352 353 342 321 319 323 323 325 328 328 323 321 329 331 332 339 342 341 338 334
160 144 85 81 99 107 111 114 122 123 125 129 125 118 109 105 105 103 105 107 110 114 109 105 100 85 81 100 87 69 65 56 52 46 41 36 30 26 21 22 21 23 26 22 21 20 19 21 14 6 12 17 18 19 8 8 9 4 11 21 5 10 341 324 329 334 342 349 349 349 347 321 323 330 325 324 323 319 315 315 327 330 332 340 343 342 338 335
148 113 87 117 121 117 120 122 124 124 129 135 130 120 111 114 111 105 107 108 107 108 100 91 82 79 82 92 72 58 49 46 44 38 36 33 29 25 23 22 21 23 23 20 22 21 19 19 13 10 19 22 18 16 15 11 4 5 17 18 1 2 356 347 331 332 339 348 349 349 350 324 322 330 322 316 314 313 312 317 330 330 334 342 344 344 339 335
151 119 129 135 128 126 127 122 117 116 126 132 130 121 113 119 119 110 109 107 105 101 94 86 78 80 91 81 62 49 43 43 40 35 32 29 25 24 22 20 22 22 19 21 21 19 21 17 12 15 21 23 19 21 27 10 1 10 18 9 0 356 356 0 339 337 339 344 351 352 349 323 314 321 314 307 309 312 311 317 330 330 336 345 346 346 339 333
165 141 144 139 133 136 133 121 110 108 116 122 126 123 114 118 122 117 112 109 105 98 90 86 85 84 85 74 58 51 49 44 39 36 34 28 24 23 22 20 20 17 16 20 16 15 21 15 12 15 17 20 20 27 59 4 3 14 16 7 1 354 352 353 342 343 339 339 352 358 345 311 304 310 307 305 306 310 310 313 324 328 336 344 347 346 337 331
164 145 145 140 140 145 140 126 113 109 108 110 119 123 121 120 119 117 114 109 101 94 89 83 84 84 75 68 59 54 48 41 36 34 33 28 25 23 21 19 18 16 14 17 16 16 19 12 11 13 13 17 17 27 46 10 5 12 12 6 358 352 351 345 341 346 338 333 346 1 340 301 300 306 307 308 305 308 309 310 318 327 336 342 346 343 335 331
156 145 144 143 146 150 146 134 125 117 107 107 114 119 126 123 116 118 115 106 98 92 87 78 77 79 71 62 53 47 42 37 31 31 30 26 26 23 19 17 17 17 16 22 18 16 19 7 8 19 19 19 17 23 29 15 7 9 9 3 353 351 351 342 340 344 335 330 341 356 331 300 300 306 309 310 306 306 306 307 316 326 335 341 343 339 333 329
153 144 143 147 149 150 144 133 132 123 109 110 116 120 123 119 117 121 110 101 100 93 85 78 72 72 68 57 47 44 38 32 30 30 26 26 27 21 17 20 20 19 21 23 16 14 14 359 12 23 21 22 22 22 22 12 10 11 6 356 349 348 345 341 345 346 334 330 341 344 323 303 301 306 309 309 307 304 304 308 316 326 336 341 340 337 331 325
152 142 141 148 149 145 135 128 128 120 113 112 114 120 118 111 108 107 102 103 101 92 89 83 70 65 62 52 44 41 35 33 32 28 25 27 26 17 18 23 22 22 22 19 18 18 9 7 23 24 19 22 23 22 17 9 10 11 1 350 349 345 339 344 352 350 338 332 335 333 321 306 300 303 305 305 303 300 303 311 319 330 340 341 340 339 330 322
150 139 141 148 146 141 135 131 126 121 121 118 115 116 112 106 98 92 104 110 99 93 94 81 64 59 54 47 41 34 30 33 30 26 26 27 25 20 21 24 21 21 21 18 21 20 11 20 30 22 18 19 18 20 13 8 10 5 353 347 347 343 339 351 360 352 344 332 325 320 320 308 298 301 303 302 300 298 304 315 323 331 333 335 339 337 327 320
147 141 142 146 144 141 139 133 128 128 130 128 123 114 107 105 101 98 109 106 98 97 95 76 58 52 49 44 38 32 30 30 26 27 28 26 25 22 20 22 21 21 24 23 23 21 19 26 27 18 19 18 15 17 11 10 13 0 350 345 345 346 341 349 0 358 349 329 314 308 319 308 296 301 304 302 301 300 307 317 323 326 328 332 340 336 327 322
148 145 143 144 143 140 139 135 135 136 135 132 126 115 107 106 106 104 104 100 97 94 88 73 53 44 40 32 31 33 32 27 23 27 27 24 24 20 17 19 21 25 28 28 25 24 25 26 21 16 19 17 13 13 10 12 16 5 354 345 344 351 346 339 351 2 358 328 307 316 320 303 294 304 307 304 300 301 312 318 322 327 331 333 335 334 329 324
150 147 144 144 141 140 139 138 141 141 137 131 123 117 114 112 108 103 102 99 92 88 83 71 53 39 32 24 19 21 24 24 21 22 23 22 21 18 16 18 20 25 25 24 25 26 27 24 18 16 17 14 12 12 10 12 16 10 355 346 345 351 349 337 343 353 355 342 315 326 321 296 303 312 308 308 304 307 317 320 324 331 337 331 327 331 328 324
152 149 147 144 139 139 140 143 148 149 144 135 126 121 118 111 102 99 107 100 81 75 76 69 51 35 30 24 16 9 13 19 17 17 20 20 19 17 17 19 21 23 23 21 21 23 24 21 17 15 14 13 11 10 10 11 13 9 356 351 348 344 342 342 344 340 338 338 326 332 331 308 319 315 309 314 313 315 322 324 328 337 338 325 323 326 325 326
155 154 151 147 140 138 146 154 160 160 152 144 137 127 117 99 85 92 103 104 71 50 47 53 32 26 27 26 24 15 4 10 11 13 17 17 17 16 17 20 22 25 24 19 15 13 15 17 15 12 11 12 12 9 8 8 7 4 360 358 354 344 341 343 344 331 316 322 330 344 352 325 317 314 313 315 314 319 324 326 329 329 322 320 321 324 326 328
161 160 155 149 141 141 159 171 173 170 165 160 156 142 117 68 72 94 90 132 77 6 11 8 7 16 18 20 23 19 13 11 8 9 14 15 14 14 15 17 20 24 25 20 9 2 9 13 10 9 10 9 11 9 4 6 4 360 2 4 360 347 342 334 332 320 301 317 322 333 338 321 307 314 316 311 313 320 323 323 322 319 320 321 322 326 329 330
168 167 162 152 143 153 175 186 185 183 184 187 190 192 230 318 318 191 163 223 268 317 329 343 9 21 14 18 18 17 19 12 8 9 12 13 13 13 14 16 16 19 23 21 9 0 3 5 5 8 9 8 9 6 2 4 1 358 3 7 2 347 339 314 309 310 308 313 305 328 338 324 302 314 313 308 319 324 318 316 317 318 321 322 324 329 332 331
174 174 169 155 149 174 194 199 200 200 208 218 224 236 262 283 272 221 245 263 273 281 284 348 27 22 12 18 14 13 16 10 9 11 9 10 13 12 11 13 13 13 17 16 9 4 360 358 3 5 6 6 5 2 4 3 358 0 4 5 5 2 353 312 279 302 312 298 291 341 346 336 309 313 311 319 324 318 313 315 317 319 321 323 326 330 332 333
179 180 175 163 170 201 214 212 212 213 225 237 237 245 260 252 217 180 227 257 268 245 236 291 345 352 359 8 8 10 11 6 8 11 10 11 13 10 8 11 11 8 9 8 5 5 2 357 1 2 2 3 360 1 6 3 0 3 2 1 7 9 1 325 267 298 306 292 304 340 341 332 307 305 314 318 316 313 314 318 321 321 322 326 328 329 333 336
182 184 182 185 207 221 224 221 220 220 229 236 228 229 227 200 188 191 217 246 256 232 227 269 302 327 344 351 1 7 6 2 3 8 9 10 9 3 4 10 12 10 3 358 360 3 3 354 355 358 357 358 358 0 4 4 5 5 1 3 9 5 3 30 290 307 289 294 308 327 332 322 276 296 311 313 314 316 317 320 324 325 325 327 327 330 335 338
184 186 191 212 229 231 227 221 218 212 214 214 204 206 202 189 217 243 244 242 233 215 220 267 296 311 334 337 344 354 358 359 359 1 3 5 4 3 8 13 15 17 357 349 357 359 355 346 348 352 353 356 358 0 4 3 4 5 5 8 11 5 3 13 331 311 244 261 308 326 329 306 280 301 309 314 317 316 317 323 327 327 326 326 327 331 336 339
184 190 206 225 234 232 223 216 205 195 191 192 195 205 207 198 226 254 254 232 221 234 234 248 290 299 317 327 336 346 349 354 357 357 360 2 3 9 15 15 14 16 2 352 358 357 352 343 343 346 350 354 353 357 4 1 2 7 8 12 20 26 7 351 327 322 268 279 310 323 320 286 301 314 314 315 312 313 321 327 329 327 326 326 328 332 336 339
187 202 218 223 228 226 221 217 208 209 219 217 219 214 209 218 244 274 266 228 226 270 232 228 270 289 306 320 336 346 345 349 354 354 356 359 3 11 15 14 13 13 6 2 0 357 352 327 332 340 344 349 350 353 0 0 3 8 8 14 26 51 58 291 305 313 286 297 312 321 316 298 313 317 313 309 309 320 326 327 326 326 327 326 328 333 338 340
197 210 215 211 215 217 219 221 219 226 229 222 227 215 208 236 261 279 271 230 230 255 229 226 257 272 292 313 333 341 340 343 348 350 352 357 2 6 8 10 10 9 9 7 360 356 352 317 322 333 336 345 348 347 354 1 7 4 5 11 9 6 275 258 277 282 283 295 308 313 304 304 311 312 310 312 320 326 325 322 323 326 327 328 332 337 340 340
203 206 204 197 201 206 211 222 227 230 229 228 234 226 227 253 269 280 269 231 232 240 226 230 254 271 283 301 327 335 335 337 342 346 350 357 360 357 1 4 4 7 8 6 2 358 350 328 327 336 338 344 345 342 350 359 4 2 2 6 359 346 316 287 282 288 289 286 295 307 306 313 321 319 315 320 322 323 322 320 323 326 329 332 335 339 340 340
202 202 197 192 193 193 199 218 224 224 228 233 237 240 250 261 267 271 255 236 237 235 232 239 253 275 287 303 324 330 332 334 341 344 348 354 351 349 357 358 358 3 4 4 4 357 345 332 339 345 340 341 339 338 345 349 356 358 357 1 2 355 348 338 307 298 303 271 291 309 310 317 323 319 321 324 321 323 324 322 325 330 333 334 337 340 341 341
203 201 198 196 198 206 222 231 229 231 235 241 245 253 262 265 263 258 250 251 246 239 244 248 253 266 275 296 316 325 330 333 341 343 344 347 343 345 352 350 352 358 359 1 1 357 346 332 342 348 340 338 334 332 338 339 344 348 347 356 7 8 329 339 332 295 315 312 303 315 316 317 315 306 323 330 325 324 324 324 330 334 334 336 338 341 342 341
200 197 198 203 212 227 242 241 239 244 245 253 258 257 265 269 262 256 255 257 249 244 250 249 253 259 262 285 305 318 327 328 334 340 341 342 340 340 343 344 349 352 354 357 357 357 352 332 333 343 338 333 327 323 327 329 332 338 342 347 359 8 328 327 326 244 283 308 298 316 317 315 315 312 325 334 328 322 323 327 333 334 334 337 339 341 342 342
191 193 205 217 226 237 247 247 250 254 256 263 263 261 269 268 260 256 254 252 247 247 253 250 251 258 267 287 298 309 322 321 323 335 339 338 339 340 340 342 344 345 350 353 352 354 354 333 318 337 339 328 316 308 308 313 315 325 336 334 331 347 344 325 299 249 265 256 291 325 300 302 317 326 331 336 327 319 322 326 331 332 334 338 340 341 342 342
198 211 228 236 241 248 253 255 258 262 264 268 267 266 266 260 259 257 250 250 248 248 256 253 251 260 272 290 299 304 318 317 316 331 338 338 340 341 340 339 338 342 345 347 349 353 353 332 315 334 338 322 309 302 298 303 302 312 328 326 316 331 342 329 286 254 262 251 273 292 277 300 324 340 333 332 325 318 321 326 330 333 335 339 341 341 342 342
215 233 246 247 249 255 261 263 266 268 268 270 269 266 261 260 262 254 250 252 248 247 255 256 255 260 271 290 302 306 317 316 312 327 336 338 337 337 338 338 336 338 341 345 349 350 350 331 322 334 335 322 314 303 295 298 295 304 319 319 311 316 317 313 282 279 288 282 284 279 265 301 331 338 326 327 322 317 321 326 331 334 337 340 341 341 343 342
238 249 257 257 255 261 269 272 274 274 272 273 271 266 262 265 264 255 253 252 247 250 256 258 258 258 270 290 302 309 320 318 313 324 334 336 334 334 336 337 336 334 338 344 345 347 350 338 329 333 332 322 312 303 300 297 294 305 316 317 313 309 306 305 293 290 291 283 285 271 245 296 325 328 322 324 319 317 322 328 332 335 337 340 341 342 343 343
255 256 255 257 260 269 277 280 281 278 273 271 268 265 263 263 260 256 255 253 251 253 257 258 256 257 271 285 297 311 320 323 319 322 332 334 333 334 334 335 337 332 333 341 343 344 349 342 334 335 334 331 323 315 317 312 308 312 313 312 310 306 303 301 299 297 287 281 284 219 245 297 318 326 324 322 320 320 325 330 332 335 337 339 342 343 344 343
258 256 254 255 262 274 284 285 284 281 277 272 268 267 263 261 260 258 256 254 252 254 257 257 254 258 271 279 293 310 315 320 321 320 330 334 331 333 333 332 336 331 328 336 339 340 340 338 338 334 326 329 318 313 318 315 310 307 304 302 302 300 295 295 297 286 275 287 275 238 269 300 319 331 327 323 323 324 329 332 334 335 337 340 342 343 344 343
254 257 262 267 273 282 289 291 289 286 281 275 275 273 267 264 264 260 257 255 253 254 256 256 255 258 266 277 292 305 311 317 320 319 328 333 330 332 332 330 333 330 324 327 334 335 332 333 336 328 315 313 311 314 318 312 304 304 304 298 293 293 291 290 284 273 285 291 275 271 285 300 316 331 329 324 326 327 330 334 335 336 339 340 341 342 343 343
254 263 272 280 286 290 294 297 298 292 282 276 276 276 271 269 266 263 260 257 255 256 255 254 254 255 264 278 288 299 309 314 318 320 325 329 330 331 330 329 330 328 324 323 327 331 327 329 334 326 320 323 322 321 321 313 308 311 310 300 291 288 286 284 283 290 300 287 279 297 304 298 311 328 330 326 328 328 331 335 335 337 340 340 340 341 342 343
260 268 276 285 289 291 296 301 301 294 285 278 275 275 274 274 273 269 265 261 258 256 255 255 255 257 267 277 283 294 305 311 317 321 324 328 330 329 330 330 327 327 327 322 322 326 324 326 332 326 324 329 329 325 325 323 319 319 316 306 294 285 283 289 295 301 297 273 283 308 308 298 313 331 330 328 330 328 331 335 335 338 339 338 339 340 342 344
265 270 278 287 291 293 296 300 301 297 289 281 276 275 276 278 278 275 268 264 261 258 258 259 259 261 267 273 281 292 302 311 318 321 323 326 328 327 328 329 325 325 328 322 320 323 321 323 330 326 323 332 337 331 332 331 326 324 321 311 296 285 286 293 300 305 296 286 298 311 305 305 325 335 327 328 331 328 331 335 335 337 338 337 339 340 342 344
268 272 278 285 291 297 299 300 302 298 290 282 279 279 279 280 282 278 272 267 264 262 262 263 262 264 267 273 282 292 300 309 316 318 321 324 325 325 325 326 324 322 325 324 319 321 321 322 328 325 323 334 344 335 333 331 321 316 317 316 307 295 289 292 302 309 303 300 311 311 302 313 335 335 324 327 329 328 332 334 335 337 337 337 339 339 342 343
273 276 282 286 292 298 301 302 301 297 291 284 281 281 281 283 284 280 275 268 264 263 264 264 264 264 268 275 284 293 301 308 313 315 317 320 322 322 322 323 323 320 323 324 318 321 323 320 326 326 321 330 341 334 331 330 319 310 322 329 319 305 299 301 306 310 308 309 313 306 301 318 335 330 323 325 327 328 332 334 335 336 336 338 339 339 341 342
278 282 287 291 296 300 301 301 300 298 295 287 280 279 281 285 285 281 276 271 267 265 263 264 265 265 269 278 286 292 299 305 309 312 314 316 318 319 319 320 320 318 321 322 317 320 323 320 325 325 316 325 337 335 331 333 328 324 332 329 320 315 314 312 311 313 315 314 308 304 311 326 332 328 326 327 328 329 331 334 335 334 335 338 338 338 340 341